User: anonymous   Login
Location: Belvedere Heights
(33.9836°N, 117.3109°W)
Time: 22:08:09
(UTC+00:00)
Language:

M-CUBED/EXP-1 PRIME - Orbit

View from above orbital plane
View from above orbital plane
View from above satellite
View from above satellite

Ground track
Ground track

The orbit data is extracted from the following two-line orbital elements,

1 37855U 11061F   24148.42749778  .00217347  00000-0  12198-2 0  9991
2 37855 101.6874 321.6716 0035112  29.0982 331.2215 15.77744363690240
Epoch (UTC): 27 May 2024 10:15:35
Eccentricity: 0.0035112
inclination: 101.6874°
perigee height: 313 km
apogee height: 360 km
right ascension of ascending node: 321.6716°
argument of perigee: 29.0982°
revolutions per day: 15.77744363
mean anomaly at epoch: 331.2215°
orbit number at epoch: 69024

The dashed part of the orbit path shows where the satellite is in the earth's shadow,  

DLR